Погода в Высокогорье

Россия / Кировская область     58°14′27″N   47°11′37″E
темп.,
°C
ветер,
м/с
пор.,
м/с
влажн.,
%
обл.,
%
осадки,
мм/ч
давл.,
гПа
погр.,
м
24 июля, сб
сб2400:00+12сз399897 0.3 1002362
03:00+10сз399827 0.3 1004336
06:00+10ссз499474 0.0 1006442
09:00+13ссз4761100 0.0 10081083
12:00+17сз56355 0.0 10092136
15:00+18сз46276 0.0 10112443
18:00+16сз36415 0.0 10121266
21:00+10с266363 0.0 1015122
25 июля, вс
вс2500:00+8ссз226843 0.0 101715
03:00+7з22715 0.0 101820
06:00+10зюз366231 0.0 1019191
09:00+17зюз46405 0.0 10191006
12:00+20зсз583483 0.0 10192710
15:00+19сз483687 0.0 10192235
18:00+16с005494 0.0 102011
21:00+14юз2261100 0.0 102036
26 июля, пн
пн2600:00+12сз22706 0.0 102131
03:00+12з2363100 0.0 102266
06:00+13з2564100 0.0 1022146
09:00+14юз266789 0.0 1022170
12:00+23з463787 0.0 10212518
15:00+24з583598 0.0 10192754
18:00+20зюз4952100 0.0 1019494
21:00+17з31164100 0.0 1019326
27 июля, вт
вт2700:00+14з4127782 0.0 1019304
03:00+12сз38977 1.0 1019175
06:00+14ссз259210 0.0 1020172
09:00+16зсз238197 0.0 1020387
12:00+20ссз356829 0.1 1019796
15:00+21ссз46725 1.6 10181008
18:00+21сз37610 0.1 1017913
21:00+14ссв22835 0.3 101828
28 июля, ср
ср2800:00+12св11825 0.0 101910
03:00+10зюз118524 0.0 101810
06:00+14зюз23725 0.0 1018115
09:00+21зюз355396 0.0 1016613
12:00+25з584387 0.0 10142177
15:00+24з484776 0.0 1012588
18:00+22з375595 0.0 1011173
21:00+16зсз248840 1.4 101154